Wind_Speed
20 19 19 19 17 17 18 18 19 20 21 22 23 22 22 21 21 21 20 18 17 16 15 14 15 15 16 17 18 19 20 22 23 24 25 27 28 29 30 31 33 34 35 35 37 37 38 38 39 42 41 39 38 37 37 37 35 34 32 29 28 27 25 21 11 6 9 18 23 24 27 30 31 33 33 33 34 32 29 27 24 21 19 18 18
21 19 19 20 19 19 19 19 20 21 21 22 24 24 25 24 24 23 22 21 20 19 17 16 15 15 15 17 18 19 20 21 22 23 24 26 26 28 29 30 31 33 34 36 36 35 36 38 39 39 38 38 39 38 37 37 36 35 34 31 30 30 28 23 15 10 10 15 20 23 25 29 31 32 33 34 34 33 31 29 26 24 21 20 20
20 19 19 19 19 19 21 22 23 23 23 24 26 26 25 25 25 26 25 24 23 21 20 19 17 16 16 16 17 19 19 20 22 23 24 25 26 27 28 30 31 32 33 35 36 35 35 38 39 38 36 37 39 39 37 37 37 37 36 34 33 32 31 29 20 14 15 17 20 23 24 27 29 29 31 33 32 32 30 29 27 25 22 21 21
17 17 17 18 18 18 20 22 24 26 26 26 27 27 27 26 27 28 27 27 27 25 23 21 20 18 18 18 17 19 20 21 22 23 24 25 26 27 28 29 32 33 34 34 34 35 36 38 39 37 35 37 40 40 40 39 38 38 36 36 35 33 32 33 28 19 18 19 19 24 26 25 25 26 28 28 28 29 28 27 25 23 23 22 22
15 14 15 16 16 17 18 18 20 23 25 27 27 27 28 28 29 30 29 30 29 28 27 25 23 21 19 19 19 20 21 21 22 23 24 25 26 28 28 29 30 33 35 36 35 35 36 39 39 36 35 38 40 41 41 41 39 37 37 37 36 34 32 34 32 24 20 22 21 21 23 23 21 22 26 27 25 25 25 24 23 22 22 22 22
16 15 15 16 16 17 18 18 17 17 20 24 26 27 28 29 29 30 30 30 29 27 27 26 25 24 22 20 20 21 21 22 23 24 25 25 26 27 28 29 30 31 33 34 35 36 37 40 39 37 38 41 42 41 41 41 40 38 39 38 37 35 32 33 33 26 21 23 24 22 23 24 22 21 26 29 27 25 24 22 22 21 21 21 21
17 17 16 16 16 16 18 19 18 16 17 21 24 26 27 26 29 30 29 30 29 27 27 26 25 25 24 23 22 21 22 22 23 24 26 26 27 28 29 30 31 32 32 32 33 35 38 41 40 38 41 44 44 43 40 40 40 40 42 41 39 37 34 32 32 29 23 22 24 24 24 25 24 22 24 25 23 23 24 22 20 20 20 21 22
18 18 17 17 16 15 16 17 16 15 18 20 22 25 26 27 31 31 30 30 29 29 29 29 28 27 25 24 23 23 22 22 23 24 25 26 28 29 31 31 32 33 34 34 34 35 37 40 40 40 43 45 45 43 41 40 39 40 43 42 40 39 37 34 32 31 27 23 23 24 24 23 23 21 22 23 21 21 24 24 21 20 22 22 22
17 18 18 17 17 17 18 18 15 14 17 19 20 22 27 32 33 31 30 29 27 27 28 29 28 28 27 26 25 23 22 23 23 24 25 25 26 28 29 30 32 33 34 35 36 37 39 39 39 40 42 45 45 44 43 42 41 41 42 42 41 40 39 36 34 32 29 24 22 23 22 22 23 24 26 29 28 26 25 23 20 19 20 19 20
15 16 16 16 17 18 21 21 18 16 18 23 23 23 27 31 30 28 29 28 26 26 27 27 28 28 28 27 26 25 23 23 24 24 25 26 27 28 29 30 31 32 32 33 34 36 38 40 41 42 43 44 46 46 46 45 44 45 44 43 43 43 40 37 35 34 31 26 24 25 22 21 25 30 32 34 31 28 26 25 21 18 16 14 15
14 15 16 17 18 19 20 21 21 21 23 27 29 31 31 30 29 28 29 28 27 26 26 26 27 27 27 28 27 26 25 24 24 24 25 26 27 28 30 31 31 32 32 33 34 35 36 37 39 41 43 45 46 46 47 47 47 47 46 44 45 47 45 41 38 36 33 29 29 29 26 24 28 32 33 31 30 28 29 29 25 21 18 15 12
14 16 17 19 20 20 20 21 23 25 26 27 29 32 33 32 30 30 29 29 29 29 28 27 26 26 27 28 28 28 27 27 26 26 26 26 26 27 30 31 32 33 33 33 34 35 35 36 37 37 39 42 44 43 44 48 50 51 48 45 45 47 49 49 45 41 39 34 31 31 32 30 29 32 33 33 32 31 29 30 29 26 23 20 16
16 17 18 19 20 20 21 23 26 27 27 28 30 31 33 34 34 33 31 30 30 30 31 30 28 27 26 25 26 27 29 30 29 29 29 28 27 27 29 31 32 34 35 34 34 35 35 35 36 36 37 38 39 41 42 45 47 49 49 47 46 48 50 53 51 48 47 43 37 37 39 36 33 36 40 39 36 33 29 29 30 29 26 24 20
17 19 20 19 18 20 21 24 26 27 28 29 31 32 34 34 35 36 35 33 31 31 32 33 33 31 29 27 28 28 28 29 31 32 32 30 29 28 28 30 32 34 36 36 36 37 37 35 35 35 35 34 36 39 41 41 41 42 43 44 47 49 49 51 51 48 46 46 43 42 43 43 41 42 43 42 40 39 36 34 33 32 28 23 18
18 18 20 20 20 21 23 24 25 26 28 29 31 34 35 35 37 39 37 34 33 33 33 34 36 35 34 33 33 33 33 33 34 35 35 33 31 28 27 29 31 34 36 37 37 38 38 37 37 38 36 34 35 38 39 39 38 38 39 41 45 47 47 49 51 49 45 44 44 41 39 41 41 38 38 40 40 38 36 35 34 31 26 21 17
19 19 20 22 22 22 23 24 25 26 27 29 31 33 35 37 39 39 35 32 33 34 34 36 36 38 39 37 35 36 38 36 33 33 34 33 30 28 28 29 30 32 35 36 37 38 39 38 39 40 40 38 37 37 38 37 36 36 38 41 42 43 46 49 52 52 48 45 43 40 37 38 38 35 35 37 36 33 30 28 27 27 24 19 18
20 20 21 22 22 21 21 23 26 28 28 29 31 33 34 36 38 37 34 33 34 34 35 36 37 38 40 40 37 37 39 39 34 32 33 32 29 28 29 30 30 32 34 35 36 37 39 39 39 39 40 42 40 38 38 37 35 36 39 40 39 39 43 47 47 49 50 47 42 39 36 36 36 34 34 35 35 34 32 29 28 30 25 16 13
20 20 21 22 21 20 22 25 27 29 30 30 32 33 33 33 33 33 33 33 35 36 35 35 37 38 39 40 40 39 41 44 40 35 35 34 32 30 30 29 30 32 33 34 34 36 38 40 41 40 41 42 39 37 37 38 37 38 39 39 37 38 42 44 40 39 41 40 38 36 35 35 35 33 33 35 36 36 37 36 35 34 28 18 14
20 21 22 22 21 22 25 28 30 31 32 33 33 34 34 34 34 33 32 32 34 35 34 34 38 40 40 41 42 41 43 46 46 41 37 35 34 33 31 28 29 30 31 32 33 34 37 38 40 42 43 42 38 35 36 38 38 39 40 36 34 39 44 43 38 34 32 33 33 33 31 32 32 31 32 35 36 37 38 38 38 37 30 23 20
20 22 23 23 24 27 30 31 32 33 33 34 35 36 35 36 35 34 34 33 32 32 34 36 38 41 41 41 42 43 45 48 51 48 42 37 35 34 32 29 29 30 30 30 31 32 34 35 37 39 41 43 41 37 36 39 40 39 39 37 37 41 41 38 38 38 35 34 35 34 33 32 32 32 33 35 36 37 37 36 37 38 33 28 26
22 23 25 25 27 31 33 32 33 34 34 35 36 37 36 36 36 37 36 35 35 35 37 38 39 42 44 44 46 49 49 50 52 52 47 41 37 36 34 33 32 32 31 30 30 31 32 32 34 35 37 40 44 41 37 39 41 41 40 42 44 44 39 37 40 41 38 36 35 35 35 35 35 35 36 36 36 36 37 36 35 36 35 31 30
24 26 27 28 31 33 34 33 33 34 34 34 35 36 37 36 37 38 37 36 37 39 40 40 40 42 44 45 47 50 50 49 51 53 51 45 40 38 38 37 37 36 33 31 30 31 32 32 32 33 33 35 41 42 38 38 40 42 44 47 47 44 42 40 39 38 38 37 35 34 36 36 36 35 35 35 35 35 35 35 34 34 34 33 32
26 27 28 30 32 34 34 34 34 33 33 33 33 35 37 36 36 36 36 36 37 38 39 38 37 37 38 39 39 43 45 45 46 48 50 47 43 41 40 41 42 39 35 33 33 32 32 33 32 32 32 32 37 39 38 38 40 42 44 45 45 45 44 40 37 37 37 37 35 34 36 36 36 36 35 35 35 34 35 35 35 34 32 30 27
27 28 28 31 33 34 34 34 34 33 33 32 32 33 34 34 34 33 33 33 33 33 34 33 31 31 33 33 34 36 39 40 40 42 45 46 44 42 42 42 43 42 38 36 36 35 33 34 34 33 32 32 34 36 37 39 40 42 42 40 40 42 42 39 38 37 35 35 35 34 35 37 36 35 36 36 37 36 35 34 34 33 30 27 24
29 30 31 32 33 32 33 34 33 33 33 31 30 31 32 31 31 30 29 30 30 31 31 30 29 29 30 30 31 33 34 35 36 38 39 40 40 41 42 41 41 41 39 38 38 38 37 36 35 33 33 33 33 34 36 39 41 42 42 39 38 39 40 39 38 36 34 36 37 34 33 35 34 33 36 38 38 36 34 32 31 29 27 25 22
31 32 32 33 32 32 33 32 31 31 32 29 28 29 29 29 30 29 28 28 29 29 29 29 29 29 28 29 31 32 32 32 34 35 35 36 36 37 39 39 39 39 40 39 40 40 39 37 34 33 32 33 33 34 34 36 39 41 41 41 39 38 39 39 38 35 34 35 34 32 32 34 32 32 36 39 37 36 36 34 31 28 27 26 24
30 32 32 31 31 30 30 29 28 29 29 27 27 28 28 28 29 29 28 27 28 28 29 29 28 27 27 29 30 31 30 29 29 30 29 29 29 29 31 33 35 35 36 36 37 37 36 35 34 32 32 33 34 35 35 34 35 36 38 40 39 37 38 39 39 37 35 34 33 32 33 35 35 36 38 38 36 36 37 35 32 30 28 27 25
29 31 31 29 29 28 26 27 27 28 28 27 28 29 29 29 29 29 29 28 29 29 29 29 29 28 29 30 30 30 30 28 27 27 27 26 25 24 23 25 27 28 29 30 31 32 31 30 30 29 29 30 31 32 33 31 31 32 34 35 35 35 36 37 38 38 36 35 34 33 33 36 37 37 37 35 33 34 36 34 33 31 29 27 24
27 28 28 28 28 26 24 26 27 28 30 30 30 31 31 31 32 33 33 32 32 33 32 32 32 31 32 33 31 29 29 28 28 28 30 30 30 29 26 24 23 24 26 26 26 25 24 25 25 25 25 26 26 27 27 27 27 29 31 32 32 31 32 35 36 36 35 34 33 32 33 34 34 34 34 31 30 32 34 33 32 31 29 26 23
27 27 26 26 26 24 25 27 29 29 30 31 32 32 32 31 33 35 36 36 36 38 39 39 39 37 37 37 36 35 36 37 36 37 38 38 38 38 35 32 28 26 25 24 23 22 21 22 24 24 23 23 22 23 25 25 24 24 27 29 30 29 31 33 35 35 34 33 33 33 34 33 31 32 32 29 28 30 32 31 31 31 30 27 23
26 26 25 24 25 26 28 29 30 30 30 30 31 32 32 31 31 32 35 37 38 39 40 41 42 42 42 41 41 42 44 45 44 44 43 42 42 42 41 40 36 31 28 25 22 20 17 15 18 22 23 22 22 24 25 24 23 23 23 25 27 28 30 32 34 34 33 32 32 33 34 34 33 33 32 31 30 31 31 30 31 31 30 28 25
25 26 27 27 28 29 29 29 29 29 29 29 29 29 30 30 29 28 31 33 35 36 38 39 41 41 42 43 43 42 43 43 43 44 43 41 41 41 40 41 39 36 34 29 22 19 17 13 15 20 21 20 22 25 24 23 24 24 23 22 23 26 29 31 33 34 33 31 31 32 33 34 34 34 34 34 32 31 31 31 31 31 28 24 23
28 27 28 30 29 28 28 27 28 28 28 28 28 27 27 27 26 27 29 30 32 34 35 37 38 39 40 41 42 42 42 42 42 42 42 42 42 39 37 38 37 36 36 30 22 20 19 16 16 20 20 19 22 24 23 23 24 25 24 23 23 24 27 29 31 33 33 33 33 33 33 34 34 33 33 34 33 33 34 33 31 30 26 22 20
31 28 28 30 29 27 27 27 27 28 28 28 28 27 27 27 27 27 28 26 26 28 31 32 34 35 36 37 38 39 40 39 38 38 38 38 40 39 37 35 34 34 35 30 23 20 19 16 17 20 21 21 22 23 22 23 24 24 24 23 23 24 26 29 31 33 33 32 33 33 33 33 34 33 33 32 32 33 35 34 32 29 25 23 21
27 25 26 28 27 26 26 26 27 28 27 27 27 27 28 28 28 27 27 25 24 25 28 30 31 32 34 35 36 37 38 38 37 36 35 34 36 38 36 32 28 27 29 28 24 20 18 17 18 21 22 22 22 23 23 22 23 24 23 23 24 26 28 29 31 32 33 33 33 33 33 35 36 36 35 34 33 33 34 34 33 30 26 24 22
23 23 25 26 25 25 26 27 27 28 28 28 29 29 29 29 28 27 27 27 26 27 27 29 31 32 34 34 34 35 36 35 34 34 35 35 35 34 30 26 23 22 22 23 22 20 18 18 20 22 23 22 22 23 23 23 23 25 26 27 28 29 30 31 32 33 34 33 33 32 33 33 34 36 36 34 32 31 31 31 31 28 25 23 22
22 24 24 24 25 26 27 28 29 29 30 30 30 29 29 28 28 27 27 26 27 27 27 28 29 29 30 30 30 30 32 33 33 34 37 38 34 29 27 26 24 22 20 20 20 18 16 17 20 23 23 23 23 22 22 23 24 26 28 29 30 32 33 34 35 36 34 31 30 31 32 32 33 36 36 33 29 28 28 27 26 25 23 22 21
23 24 25 26 28 28 28 29 29 29 29 28 28 27 27 27 27 27 26 25 26 26 25 25 25 24 26 28 29 28 29 30 30 30 30 28 23 21 23 25 25 23 21 20 19 17 15 16 20 24 24 23 24 24 23 24 26 27 28 28 30 32 33 33 32 32 31 29 29 30 31 31 33 36 37 34 29 27 27 26 25 24 23 21 21
23 24 26 28 28 28 27 27 28 27 27 27 26 26 26 26 26 25 24 24 24 24 23 23 23 23 25 28 29 28 26 24 23 23 22 20 17 16 18 20 22 23 21 19 17 15 15 17 20 23 24 23 24 25 25 26 26 26 27 28 28 28 29 29 29 29 29 29 30 31 31 32 34 35 35 33 30 28 28 27 26 26 25 21 19
23 24 26 27 27 26 26 26 26 26 26 25 25 25 25 25 25 24 24 22 22 23 22 21 22 24 26 28 28 27 24 22 22 22 20 19 18 16 16 19 20 19 17 15 14 14 14 17 20 22 23 24 25 26 26 27 27 26 27 29 29 29 29 29 30 31 31 31 32 33 34 36 36 34 32 30 29 29 29 27 25 25 24 20 18
23 24 25 26 26 25 25 25 25 25 25 26 25 24 25 25 25 24 24 22 22 22 22 22 23 26 28 29 30 30 28 25 23 21 18 20 20 16 17 21 19 16 16 13 12 12 13 16 19 21 22 24 25 26 27 27 27 27 28 29 29 28 28 29 30 31 32 32 33 35 38 39 37 34 31 29 28 28 28 26 24 22 21 19 18
22 23 24 24 24 24 24 24 25 25 25 26 25 24 24 25 25 24 23 22 22 22 22 22 23 25 27 28 31 31 28 25 22 18 17 19 20 16 16 19 15 12 14 13 12 13 15 17 20 21 23 25 26 28 29 29 30 30 29 29 29 28 28 28 29 31 32 33 34 38 40 39 36 32 29 27 27 27 26 24 22 21 19 18 17
22 22 23 23 23 23 23 24 25 25 25 25 26 26 26 25 25 24 22 21 21 21 21 22 23 24 25 26 27 26 23 21 19 17 16 18 18 14 12 11 5 6 12 12 13 15 17 20 22 24 26 29 31 33 34 33 33 32 31 29 29 29 28 28 29 30 31 33 35 38 39 37 34 31 28 27 27 27 25 23 21 20 18 17 16
20 20 21 21 22 22 23 24 24 24 25 26 26 26 25 23 23 22 20 19 19 20 20 20 21 21 21 20 20 19 18 17 17 15 15 16 15 12 7 5 4 8 11 13 14 16 19 22 24 25 26 27 30 32 32 31 33 34 33 31 30 30 30 31 31 32 34 35 36 38 38 37 34 31 29 28 27 26 23 22 21 19 18 17 16
18 18 19 20 20 21 22 23 23 24 24 25 24 24 23 22 21 21 20 20 20 21 20 20 19 18 17 17 17 16 16 16 15 15 14 14 13 12 8 6 6 7 10 13 15 16 18 21 23 23 23 23 24 25 25 25 28 31 33 33 33 33 34 35 36 37 39 41 41 40 39 37 34 31 29 27 26 25 23 21 20 19 18 17 16
17 17 17 18 19 21 21 22 23 23 23 23 22 22 22 22 21 20 20 19 19 20 20 20 19 18 17 17 17 16 16 15 15 16 16 15 14 13 11 9 9 9 10 12 13 14 15 17 19 20 20 20 21 21 21 21 23 25 27 28 30 31 32 34 37 39 42 44 44 42 40 36 33 31 30 28 26 24 22 21 20 18 17 16 15
17 17 16 17 18 20 20 21 22 22 22 21 21 21 22 22 21 20 20 20 19 19 19 19 19 18 17 17 17 16 16 16 15 16 17 17 16 14 13 13 12 13 13 13 13 14 15 15 16 18 19 20 20 20 20 21 22 23 24 25 26 28 30 33 37 41 43 44 44 42 39 36 32 30 29 28 26 23 21 20 19 17 16 15 14
16 16 16 17 17 18 19 20 21 21 21 21 21 21 21 21 21 20 20 20 20 19 18 19 19 19 18 18 17 17 17 16 17 18 18 17 17 15 14 14 14 15 15 15 15 15 16 16 17 19 20 21 22 23 23 23 23 23 23 24 26 28 31 34 38 40 40 39 38 37 36 34 31 29 27 26 25 23 21 20 18 16 15 14 13
15 16 17 17 16 17 18 19 20 20 20 21 21 21 20 20 20 20 20 20 19 19 19 19 19 19 18 18 18 18 18 17 18 19 18 18 17 16 15 15 16 16 17 18 18 18 18 19 20 21 22 22 23 24 25 25 24 24 23 24 26 29 33 36 36 35 34 33 32 31 31 30 29 27 25 24 23 22 21 19 17 15 14 13 12
17 17 17 16 16 16 17 17 18 18 19 19 19 20 20 20 20 20 20 20 20 19 19 19 19 18 18 18 18 18 18 18 18 18 17 17 17 17 16 17 18 18 19 19 19 19 19 20 21 22 22 23 23 24 24 24 25 25 26 28 30 33 34 34 31 29 28 27 27 26 27 27 27 26 25 24 22 21 19 17 15 14 13 12 11
18 19 18 16 16 17 18 18 18 18 19 19 18 19 19 19 20 19 19 19 19 19 19 19 19 18 18 19 19 18 18 18 18 18 18 18 17 17 18 18 19 20 21 21 22 22 22 22 23 24 24 25 25 25 26 26 28 29 31 31 32 32 30 29 27 26 25 24 24 24 24 24 25 25 24 23 21 20 18 16 14 13 11 10 10
Wind_Direction
23 23 22 23 22 19 19 19 18 17 16 15 14 11 10 8 4 0 359 356 351 342 329 317 309 301 290 281 277 275 271 265 261 256 251 250 247 243 241 239 237 239 240 239 238 237 236 236 236 234 231 228 228 227 225 225 224 223 222 219 218 217 210 206 199 150 167 192 191 196 203 200 201 208 209 212 218 217 217 223 228 228 225 223 222
13 14 15 19 20 18 17 16 16 16 15 14 13 11 10 9 8 7 3 359 357 352 342 331 322 312 301 289 281 278 275 269 264 259 254 253 251 248 245 241 239 239 239 238 238 238 237 237 238 237 233 230 230 228 226 225 223 222 222 220 219 218 212 206 196 166 158 175 183 190 198 199 202 208 209 213 217 217 216 220 226 228 226 224 222
0 1 2 5 9 11 12 11 12 12 12 10 10 10 10 8 8 9 7 3 0 356 350 342 332 323 314 302 290 282 278 274 268 262 258 256 254 253 250 245 243 241 240 239 237 236 238 239 239 238 234 231 230 228 226 225 223 222 222 221 220 220 216 212 205 183 167 171 181 186 191 197 203 206 209 212 216 216 216 219 225 230 230 229 227
356 355 354 355 356 358 1 4 6 6 6 5 4 4 4 4 5 7 6 4 3 359 356 350 342 332 322 314 304 291 284 280 274 267 263 261 258 256 255 251 248 245 244 244 242 238 238 240 240 237 232 230 230 227 225 223 222 221 221 221 221 221 218 215 214 203 178 173 182 188 191 194 200 205 204 206 212 215 215 218 225 232 236 234 231
350 350 348 348 349 349 349 351 354 358 360 359 358 358 357 358 360 2 2 1 1 359 357 354 348 340 329 320 313 303 294 287 280 274 269 267 263 260 259 256 254 252 250 249 247 243 241 241 241 237 231 230 230 227 224 222 221 220 220 220 220 219 218 215 215 211 191 178 177 184 190 190 192 200 202 200 204 210 213 218 223 229 234 234 232
345 344 343 342 342 343 344 342 340 342 346 350 351 352 352 352 353 354 354 354 355 354 352 350 348 343 336 326 318 310 304 296 288 282 276 272 267 264 263 261 258 258 256 253 251 248 246 245 243 238 233 232 230 228 225 222 220 218 218 219 218 216 215 213 211 208 197 184 177 175 183 187 186 192 201 202 202 204 209 214 220 225 226 228 229
341 341 338 336 335 336 339 338 335 331 333 338 340 342 345 347 347 347 347 346 346 345 344 344 343 341 338 333 326 317 311 303 295 289 285 279 272 269 268 264 261 260 258 258 256 252 249 247 246 241 237 235 233 230 227 223 221 219 218 218 216 213 212 210 206 203 196 184 177 174 178 184 186 188 196 199 201 206 208 208 212 217 219 222 224
335 335 332 331 330 331 333 332 329 326 327 330 332 333 335 337 341 342 341 340 339 337 337 337 337 335 333 331 329 323 316 308 300 294 289 284 279 276 273 267 264 262 261 260 258 255 253 250 247 244 240 239 237 233 230 226 222 221 221 218 214 211 210 207 204 202 198 186 179 178 175 177 181 184 186 188 193 204 209 208 208 210 215 219 221
327 327 326 325 324 325 329 329 326 321 322 324 325 326 329 332 335 334 332 332 331 328 329 330 330 330 329 326 324 322 317 311 306 300 293 288 283 280 277 272 268 265 263 262 260 257 255 253 250 247 244 243 240 237 234 231 226 224 222 218 214 212 210 207 204 201 198 191 183 178 175 177 180 177 180 188 194 199 202 204 209 213 213 216 218
316 316 316 316 318 321 325 326 324 319 320 322 322 322 324 327 327 325 323 322 320 320 321 320 320 321 322 321 319 317 313 311 310 307 300 293 287 280 277 274 271 268 265 264 263 260 257 255 253 250 248 246 243 240 236 234 231 229 227 221 216 213 209 207 205 202 198 195 188 182 180 186 187 184 187 194 197 195 193 195 200 203 199 203 216
305 308 310 312 314 317 320 321 321 319 318 319 320 321 322 323 322 320 319 315 311 312 311 310 311 312 313 314 313 310 307 306 308 308 304 300 293 284 278 274 271 269 266 263 262 260 259 257 256 253 250 247 245 242 239 236 234 233 232 227 223 218 213 209 208 204 200 200 197 192 190 192 193 192 193 193 192 193 194 194 193 189 187 191 201
298 302 305 310 313 315 315 316 316 315 314 315 315 317 319 319 318 316 314 311 309 306 304 301 301 302 303 304 304 304 303 303 303 305 305 302 296 288 280 275 270 267 265 263 261 261 259 258 256 254 250 248 245 243 241 239 237 235 233 232 229 226 222 218 215 209 205 204 201 200 200 195 191 192 193 191 191 193 194 195 194 191 193 198 198
298 301 303 305 307 309 309 311 311 309 309 310 311 313 314 314 314 314 312 309 306 302 300 299 298 297 297 295 295 295 297 298 300 302 302 302 298 290 281 275 271 266 264 262 261 261 259 258 257 255 252 249 246 243 241 240 239 236 235 234 233 231 229 226 224 219 213 209 205 206 206 199 193 197 198 194 190 187 186 190 193 195 198 202 202
296 299 301 300 300 302 303 304 305 305 305 307 307 309 309 309 310 311 310 308 305 300 298 297 296 295 294 292 292 292 290 290 294 298 300 301 299 291 281 275 271 267 264 262 260 260 259 258 258 257 254 250 245 243 241 239 237 235 233 232 232 232 230 228 227 224 220 215 211 212 211 205 204 206 203 198 193 188 186 189 191 194 196 198 194
294 294 298 299 299 301 301 300 299 299 299 301 302 303 305 305 305 307 307 305 301 298 296 294 293 292 291 290 291 292 289 288 291 296 298 299 300 293 281 274 270 266 264 262 260 259 258 258 257 257 257 253 247 244 241 238 235 232 230 230 230 231 229 227 226 224 222 220 217 216 214 211 211 209 202 198 197 194 192 192 191 189 188 183 174
296 296 299 300 299 297 297 297 297 296 295 295 296 297 299 301 301 303 303 300 297 295 293 291 291 290 291 290 288 288 289 289 290 292 294 296 296 290 281 275 269 265 263 262 260 259 258 256 256 256 255 255 253 248 243 239 232 228 228 228 229 229 229 228 227 224 224 224 220 218 216 213 212 210 203 198 196 192 188 186 186 183 177 172 172
299 299 299 299 298 295 294 295 296 297 295 293 293 295 297 297 296 296 296 294 293 293 290 288 288 288 289 289 287 286 286 286 284 283 285 287 285 282 279 274 269 266 264 262 260 259 257 255 254 254 254 254 254 249 243 238 229 225 226 227 226 227 229 229 227 225 225 226 223 219 217 213 210 208 204 200 196 189 181 177 179 180 177 175 180
300 300 298 297 296 294 295 296 296 296 294 292 292 294 297 296 292 292 291 288 288 289 288 284 284 285 285 284 285 285 285 285 283 279 277 278 277 274 272 268 265 266 265 264 261 258 257 255 252 251 252 253 252 246 241 235 227 222 224 224 222 225 227 225 221 221 222 223 221 218 215 211 208 204 201 200 199 194 189 186 184 181 182 185 178
302 301 300 299 297 296 297 296 295 294 293 292 291 292 293 293 290 288 286 284 284 285 283 278 278 280 280 279 281 283 283 283 282 278 273 271 271 270 267 261 259 260 261 262 261 258 257 256 252 249 249 250 248 243 238 233 225 222 223 221 220 224 226 221 214 211 211 211 211 210 207 206 203 197 196 198 198 198 197 194 189 184 185 185 174
305 304 302 299 296 296 297 296 295 294 293 293 293 292 290 289 286 284 283 282 280 279 278 276 277 278 276 275 277 280 281 281 280 278 273 267 264 264 262 257 255 257 258 257 257 256 256 255 253 249 247 246 244 241 236 231 226 224 222 219 222 225 223 215 210 210 208 206 205 203 201 200 198 194 192 192 194 196 196 196 194 192 189 184 177
305 302 299 297 295 296 298 297 295 294 293 293 292 290 288 287 285 284 283 281 278 276 275 275 276 277 275 274 276 278 278 277 277 276 272 266 259 256 256 255 254 256 257 255 253 254 254 254 253 251 246 243 242 237 231 227 226 226 224 223 226 227 219 211 210 209 207 205 204 201 199 197 196 194 191 188 188 191 192 194 197 199 197 193 185
303 300 298 298 298 298 299 298 296 294 293 293 291 289 288 287 285 284 283 280 278 276 275 275 275 275 273 273 275 276 275 273 273 273 271 265 257 251 252 254 255 254 254 254 252 252 252 252 253 252 246 241 239 235 226 220 221 225 227 229 229 225 217 211 208 204 203 204 201 198 197 196 193 191 189 185 185 185 187 190 195 200 203 202 196
302 300 298 298 299 300 299 297 297 295 294 294 292 289 290 290 287 285 283 280 278 276 275 275 273 270 270 270 272 274 275 273 270 269 268 265 258 250 248 253 257 253 249 249 251 251 251 252 252 251 247 240 236 232 225 218 220 224 227 227 226 221 215 208 203 200 201 200 198 197 198 196 192 190 187 183 180 179 181 187 192 196 198 199 199
303 300 299 299 299 300 299 298 297 296 295 295 292 288 289 290 288 285 281 278 276 275 274 274 271 268 270 271 271 273 276 275 272 268 266 265 260 252 248 250 253 251 247 247 250 250 250 250 249 248 245 238 231 228 224 220 221 224 224 221 218 214 209 203 200 199 197 195 196 198 198 196 192 188 184 178 175 175 180 184 188 191 192 191 190
304 301 301 299 297 298 299 297 296 295 295 294 290 287 289 290 288 285 282 278 276 275 275 274 272 271 272 272 273 275 276 277 275 271 268 265 261 256 251 248 247 246 246 246 248 248 247 247 247 246 243 237 229 225 224 221 221 222 221 217 211 206 203 201 199 197 195 194 196 197 196 194 190 183 179 176 173 174 176 177 178 181 184 184 183
303 300 300 299 297 298 299 296 293 294 293 290 285 284 287 289 287 286 284 281 278 277 276 276 274 274 275 275 276 277 277 276 275 272 269 268 264 261 258 254 250 247 245 244 246 248 247 246 246 243 238 232 225 223 224 224 223 223 222 218 210 204 201 200 197 196 197 196 195 194 192 190 184 177 176 176 175 175 174 171 170 174 179 180 178
300 299 299 299 297 297 296 292 291 293 293 290 287 286 285 285 284 284 284 283 282 280 279 278 277 277 279 280 280 280 279 277 275 273 272 271 267 264 261 257 253 248 245 243 246 247 246 245 244 238 232 227 224 224 226 225 223 222 222 219 213 205 202 200 198 198 198 196 193 192 188 183 178 176 177 177 176 175 175 172 169 171 177 180 176
297 297 298 297 295 293 292 291 292 294 293 291 288 286 286 284 282 281 280 280 280 280 279 278 278 279 280 282 283 282 280 278 276 277 279 278 276 273 266 259 254 249 245 245 245 245 245 243 238 230 223 220 219 221 223 221 219 218 218 219 215 207 202 199 197 197 199 196 191 187 181 178 177 176 175 175 174 174 175 174 171 172 175 176 171
297 296 296 295 293 291 291 293 295 294 292 290 286 282 282 282 281 280 278 276 275 275 275 274 274 275 275 276 278 280 279 277 277 280 280 279 279 277 272 264 258 254 251 249 247 245 241 235 225 215 209 210 212 214 215 214 213 213 214 216 213 205 198 195 194 195 196 192 186 181 176 174 174 173 171 171 171 172 173 173 172 173 173 171 169
297 296 295 294 293 294 295 295 294 291 288 288 287 284 282 281 280 281 281 279 278 277 277 276 276 275 274 273 273 273 274 276 278 278 277 277 277 277 275 271 266 263 260 256 250 244 236 226 216 208 202 202 205 207 206 203 203 207 211 213 210 201 193 192 193 193 191 187 182 177 173 170 168 167 167 166 165 167 171 172 173 171 170 168 166
297 296 296 294 294 296 295 293 291 289 287 286 287 287 287 285 283 281 281 283 284 283 281 280 279 278 277 277 276 275 276 277 277 275 273 273 273 273 273 273 270 267 264 260 253 244 234 219 211 209 206 202 203 204 203 201 200 201 204 206 205 197 191 191 191 189 185 182 178 173 171 169 167 166 167 165 162 164 167 169 170 170 169 168 167
295 295 296 295 294 294 291 289 288 288 287 287 286 286 289 291 289 285 284 285 287 287 286 285 284 282 280 280 281 280 280 280 280 279 277 276 275 271 268 266 265 265 263 258 250 242 235 221 209 209 206 203 206 206 202 200 200 199 198 199 198 194 191 190 188 184 180 176 173 171 171 171 169 169 169 167 164 163 163 164 167 167 166 167 169
296 294 294 294 293 291 289 288 288 287 287 288 288 287 289 290 291 292 291 289 288 287 287 286 286 285 284 283 283 283 284 285 284 282 280 279 280 279 274 266 259 257 257 252 244 238 235 223 210 209 207 204 206 204 200 200 200 196 195 196 192 189 188 186 181 179 177 175 172 172 172 172 171 169 169 168 165 162 162 163 165 165 164 163 165
297 292 291 291 291 290 289 288 287 287 287 287 287 287 287 288 289 292 293 293 292 289 288 287 286 286 286 285 284 285 285 286 286 283 280 277 276 278 281 276 265 255 251 246 238 234 231 219 210 211 210 208 208 204 200 201 198 193 192 190 182 177 177 176 174 173 173 173 173 174 174 174 172 168 167 166 164 162 162 164 163 162 163 163 163
295 290 290 291 290 290 290 289 288 289 288 287 286 286 287 287 288 288 289 291 293 292 291 290 289 289 289 287 286 287 287 287 287 285 282 278 273 272 276 279 270 255 246 240 235 233 230 220 212 211 209 208 207 204 200 198 193 187 182 174 167 166 168 169 170 172 173 174 176 177 177 177 175 172 169 167 165 163 163 165 166 164 164 164 162
295 294 294 294 292 291 291 290 290 289 288 288 288 287 287 288 287 287 287 288 289 290 291 292 292 293 292 290 288 289 290 289 289 288 285 280 272 264 262 267 267 255 240 230 227 231 231 220 211 210 209 206 204 202 199 194 186 180 175 169 165 165 167 169 172 174 175 177 178 178 177 176 176 173 168 166 168 167 164 164 164 163 161 160 159
298 297 296 296 295 294 293 291 290 289 289 289 289 288 288 287 286 286 286 286 286 288 289 291 294 296 296 293 292 292 292 291 291 291 288 283 272 254 244 249 259 257 241 222 217 224 229 218 208 207 206 202 199 197 195 187 179 175 173 171 168 168 171 174 176 177 177 177 176 175 173 172 172 171 167 163 163 162 160 158 156 155 155 155 155
297 296 296 297 297 296 294 292 291 291 291 290 289 288 288 286 286 285 284 284 285 286 287 291 294 295 295 295 296 297 296 295 294 292 289 284 273 253 241 245 255 256 242 220 209 215 221 213 205 205 203 198 193 189 184 179 175 173 172 171 170 172 173 174 175 175 174 172 170 170 169 168 168 168 166 161 157 155 155 154 152 151 152 153 155
299 298 298 299 299 298 296 295 294 293 292 290 289 288 288 287 286 285 283 283 284 285 285 288 289 289 290 292 295 297 299 297 294 294 295 295 289 274 261 258 258 252 236 214 202 209 216 209 202 202 199 191 185 181 176 173 173 173 171 169 169 170 172 171 169 170 169 166 165 166 165 164 164 165 163 160 156 154 154 154 154 154 154 155 158
302 301 300 301 300 298 297 297 295 294 292 292 291 291 289 288 286 284 283 283 283 283 284 285 285 286 287 288 290 293 295 293 289 289 294 300 297 288 284 280 266 241 215 197 195 205 209 201 195 193 188 182 177 174 170 169 170 171 171 170 169 170 171 170 168 167 167 165 163 163 162 161 161 160 160 159 158 157 156 155 155 156 156 156 156
302 300 300 302 301 300 300 299 296 295 295 294 293 292 290 288 287 284 283 282 281 282 282 281 281 284 286 286 289 292 294 294 293 291 295 301 296 289 293 292 270 223 191 187 194 194 189 185 182 179 174 171 169 165 162 165 168 171 171 172 171 170 169 169 167 166 164 163 162 161 160 160 159 158 157 157 157 157 156 155 153 153 153 153 153
302 300 300 302 303 304 303 301 300 300 299 297 296 295 294 293 291 287 282 279 279 281 281 281 282 285 286 288 293 297 299 302 303 303 306 308 301 292 298 302 280 215 182 179 181 173 167 166 166 166 164 163 161 160 163 167 171 172 171 170 169 167 165 164 165 164 162 161 161 160 159 158 157 156 154 155 156 155 154 152 151 150 150 151 153
303 302 302 303 304 304 304 303 304 305 303 302 302 301 300 301 300 295 287 280 278 279 279 279 282 285 286 289 296 302 306 311 314 316 320 321 316 308 311 319 309 170 160 162 166 167 166 163 163 166 167 167 168 171 173 175 175 172 169 168 167 166 163 161 161 161 159 158 158 158 156 155 155 154 153 154 156 155 152 152 151 150 151 154 155
305 304 305 305 306 307 307 307 309 309 308 308 308 307 308 309 310 311 308 302 299 298 295 293 294 297 299 304 312 319 321 323 326 329 332 336 337 337 343 10 77 125 144 155 163 168 169 168 167 168 168 169 173 176 177 177 176 174 170 167 165 164 163 161 161 161 160 157 155 155 155 155 153 153 154 155 156 155 153 153 153 151 152 154 157
307 307 308 309 310 312 312 313 314 314 314 314 314 314 315 316 317 319 321 321 320 319 317 317 320 323 325 329 333 334 334 336 339 343 348 355 1 4 13 39 75 107 133 148 157 164 167 167 165 162 161 165 169 170 170 172 174 174 172 168 166 167 168 167 165 163 162 159 156 154 154 154 153 153 155 157 158 158 156 155 155 153 153 156 159
309 309 311 312 314 315 315 316 316 316 317 317 318 318 320 322 323 324 325 327 328 328 327 328 331 334 336 338 339 339 343 347 349 352 1 14 24 28 35 52 70 85 103 121 136 146 151 154 154 152 152 154 158 160 162 163 165 166 168 168 167 168 169 168 166 165 163 161 159 157 156 155 154 156 159 160 160 159 157 156 156 155 155 158 162
313 312 314 316 318 318 318 318 320 320 320 320 320 322 324 325 326 327 329 330 332 334 335 336 336 337 339 343 344 345 349 354 357 1 10 23 35 44 52 62 73 82 90 100 113 125 130 133 139 141 140 140 142 143 145 147 150 155 160 163 164 165 166 166 165 163 162 161 161 160 158 156 155 157 160 161 160 159 158 157 158 159 159 160 163
321 317 318 321 321 321 321 322 323 323 324 324 324 325 327 329 330 332 334 335 336 339 341 342 343 343 344 345 348 352 357 4 12 17 22 29 40 51 62 70 77 83 88 91 98 107 112 117 123 129 130 132 134 135 136 140 146 151 156 160 164 165 164 162 160 158 157 158 159 158 158 157 157 158 160 161 161 162 161 159 160 163 163 164 168
330 324 324 324 324 325 325 325 325 324 325 326 327 327 330 332 333 335 338 339 339 343 345 346 347 347 347 347 350 355 0 8 19 27 31 37 44 53 65 75 81 86 89 91 94 99 106 112 118 123 126 129 132 135 138 143 147 151 154 157 159 160 157 156 155 155 156 158 159 158 159 159 159 159 161 162 163 165 165 162 162 164 164 166 173
344 340 335 327 324 326 327 326 328 328 328 328 330 332 334 335 336 339 342 342 342 345 348 349 349 350 350 350 353 357 360 6 18 30 38 45 52 60 71 82 89 93 95 96 99 104 109 114 117 121 125 129 133 137 141 143 145 147 148 149 149 150 150 150 152 153 154 156 157 158 159 159 159 160 163 164 165 165 165 163 162 162 163 170 180
355 356 350 339 334 335 333 332 335 338 337 336 337 337 338 339 340 341 343 345 347 350 351 351 352 355 357 358 0 3 6 13 25 36 42 48 56 66 76 85 92 95 96 97 98 101 106 111 115 117 121 124 126 128 130 132 133 134 136 139 141 143 144 145 146 149 151 153 155 157 159 160 161 162 164 166 167 167 166 165 164 164 168 177 186
Height
780 779 777 775 773 771 770 768 767 766 766 765 763 762 760 758 756 754 752 749 747 746 745 744 743 742 742 742 741 741 741 741 741 741 740 739 739 739 739 739 740 740 742 743 744 746 747 748 749 750 753 754 754 755 757 759 762 764 766 768 769 771 772 773 773 776 777 778 780 782 783 786 788 790 792 794 795 798 800 800 801 801 802 802 802
781 780 778 776 774 772 770 768 767 766 765 764 763 762 760 758 756 754 751 749 747 745 745 743 742 741 741 741 740 740 739 739 739 739 739 738 737 737 737 737 737 736 737 738 740 742 744 744 745 747 750 751 750 751 753 754 757 759 761 764 766 768 769 770 771 772 774 776 777 779 781 783 785 786 788 790 792 794 796 797 798 799 800 800 801
781 779 778 776 774 772 770 768 766 765 764 763 763 762 760 758 755 752 749 747 746 745 744 743 742 740 740 739 739 739 738 738 738 737 737 736 736 735 735 735 734 734 733 733 735 738 740 740 740 743 747 747 746 747 748 749 751 753 756 759 762 764 766 768 768 769 770 773 774 775 778 780 782 784 786 788 789 791 793 794 795 797 798 798 799
782 780 778 777 774 772 769 767 765 764 763 762 761 760 759 756 753 749 746 745 745 744 744 742 741 739 738 738 737 737 737 736 736 736 735 735 734 733 733 732 731 731 730 730 731 734 735 735 735 739 742 742 741 741 742 743 745 748 751 755 757 760 762 764 765 766 766 768 770 772 774 777 780 782 785 787 788 789 790 792 793 795 796 797 797
781 779 778 776 774 772 769 767 765 763 762 762 761 759 756 753 750 747 745 744 743 743 742 742 740 739 738 737 736 736 735 735 734 734 733 733 732 731 730 729 728 727 727 726 727 730 730 730 731 735 737 736 734 735 735 737 739 742 746 749 752 756 758 760 761 763 762 763 766 769 771 774 778 780 782 784 786 787 788 790 791 793 794 795 796
779 778 776 775 773 772 770 767 764 762 761 760 759 757 754 751 748 746 745 744 744 743 742 742 740 739 737 736 735 734 734 733 733 731 731 730 729 728 727 726 725 724 723 722 723 725 726 725 727 731 731 728 727 728 730 732 734 736 739 743 747 751 754 755 758 759 759 759 761 764 767 770 774 776 778 781 783 785 786 788 789 791 792 793 794
779 778 777 775 774 772 769 767 764 761 760 758 756 754 752 750 748 747 745 744 743 743 742 741 740 738 736 735 733 732 731 731 730 729 728 727 726 725 724 723 721 720 718 718 719 720 720 721 723 725 725 722 721 723 725 727 729 730 733 737 742 746 749 751 754 755 756 756 757 759 762 766 769 771 774 777 781 784 785 786 787 788 789 790 791
779 778 777 775 774 772 769 766 763 761 759 757 755 753 751 749 747 746 745 744 743 742 740 739 738 736 734 733 731 730 729 728 728 727 725 724 723 722 721 720 717 715 714 713 714 715 715 716 717 719 718 717 717 719 721 722 723 725 727 731 736 739 743 746 749 751 752 752 753 755 757 761 764 767 770 774 777 779 781 783 784 785 786 786 788
779 778 777 775 774 771 768 765 762 760 759 757 755 753 750 748 746 744 743 742 742 741 739 738 736 734 732 730 728 727 726 726 725 725 723 722 721 719 717 715 713 711 710 708 709 709 710 710 712 713 713 713 714 715 716 717 718 719 721 726 730 733 736 740 742 745 746 747 749 751 754 756 758 761 764 765 768 771 776 780 782 782 783 784 785
780 779 777 775 772 769 765 763 760 758 756 755 754 752 750 747 745 744 742 740 739 738 737 736 734 732 730 728 726 725 724 723 722 722 721 719 718 715 713 712 710 708 706 704 703 704 704 705 706 707 708 708 708 709 710 712 713 714 716 720 724 727 730 733 735 737 739 741 743 745 747 750 751 752 754 757 761 766 770 774 777 779 781 782 783
778 777 774 771 768 765 762 759 757 756 754 752 750 748 747 746 744 743 741 739 737 735 734 732 730 729 728 725 724 722 721 720 719 718 717 715 714 712 709 707 706 704 702 701 699 698 699 700 700 701 702 702 702 703 704 706 707 708 712 716 719 721 723 726 728 730 733 734 735 737 738 740 743 746 749 753 757 762 765 767 771 774 777 778 780
775 772 769 767 764 761 759 757 755 753 752 750 748 746 744 743 742 741 739 737 736 733 731 729 726 725 723 722 720 719 717 716 715 714 713 711 710 708 705 704 702 700 698 697 696 695 695 695 695 696 696 695 696 697 698 699 700 703 707 711 714 717 718 719 720 722 725 726 728 729 729 732 737 740 743 746 751 756 759 762 765 768 770 773 775
770 768 765 763 761 759 757 755 753 751 749 748 746 744 743 740 739 738 736 735 733 730 728 726 724 721 719 717 716 714 713 712 711 710 708 707 705 703 701 699 697 696 694 693 693 691 690 690 689 689 689 689 690 691 691 692 694 698 702 707 709 712 714 715 716 717 717 718 720 720 720 724 729 731 734 738 743 748 753 756 759 762 765 768 770
766 764 762 760 758 757 755 753 751 750 748 746 744 742 740 738 736 734 733 731 730 727 724 722 720 718 716 714 711 709 708 707 706 705 703 702 701 699 697 695 693 691 690 688 688 687 686 685 684 682 682 683 683 684 685 687 690 694 698 701 703 704 707 711 713 714 714 713 712 712 715 718 721 723 727 731 734 737 742 747 752 756 760 764 767
762 761 759 757 756 754 753 751 749 747 745 744 741 739 737 735 733 731 729 728 726 723 721 718 715 713 711 709 706 703 701 700 699 699 698 696 695 694 692 690 688 686 685 684 683 681 681 681 679 677 676 676 677 678 679 682 686 690 693 694 695 698 701 703 705 708 709 708 708 710 712 715 717 720 723 727 729 732 736 741 747 752 757 761 764
759 758 756 755 753 752 750 749 747 745 743 741 738 736 734 732 729 727 726 723 721 719 717 713 710 707 704 703 700 696 693 693 692 691 691 690 690 689 687 685 683 681 679 678 678 676 675 675 673 672 671 670 671 672 674 677 682 685 687 688 690 693 694 696 699 702 703 704 706 708 709 712 715 718 721 724 727 730 735 740 746 750 754 758 760
757 756 754 753 751 750 748 746 744 743 741 739 736 734 731 729 726 724 722 719 716 715 712 709 705 703 699 697 695 691 687 686 687 685 684 684 684 683 682 679 677 675 673 672 672 671 670 669 668 667 665 664 665 667 670 673 677 680 681 682 686 688 689 690 694 697 698 700 704 706 707 708 710 714 718 721 724 726 730 736 741 745 749 752 755
756 754 752 750 749 747 745 744 741 739 737 735 733 731 728 726 724 721 718 714 710 709 707 704 700 697 695 692 689 686 681 679 680 680 679 678 679 678 676 674 672 670 667 666 666 665 663 662 662 661 659 659 660 663 665 668 671 674 675 677 681 682 681 684 690 693 696 698 701 704 706 706 707 709 713 716 719 721 723 727 733 739 743 746 747
754 752 750 748 746 744 742 741 738 736 733 731 729 727 724 722 720 718 715 711 706 702 700 697 693 690 688 686 683 681 676 672 672 672 671 672 672 672 671 669 666 664 662 661 660 659 657 656 656 655 654 654 656 658 660 663 666 667 669 672 674 672 672 679 686 690 694 696 698 701 703 705 706 706 708 711 714 716 719 722 727 732 737 740 742
752 750 747 745 743 740 739 737 735 732 730 727 725 722 719 716 714 711 709 706 702 697 694 691 686 682 680 678 676 674 671 666 664 663 663 663 664 664 664 662 660 658 657 655 654 652 651 650 649 648 648 650 651 653 654 657 660 662 664 666 664 663 669 677 682 686 689 692 694 697 700 702 704 704 704 706 709 711 715 719 724 728 732 736 737
749 747 744 741 739 736 735 733 730 728 726 723 720 717 714 711 709 705 702 700 696 692 687 684 680 675 672 670 668 666 664 661 657 654 654 654 655 655 655 654 652 651 649 648 647 645 644 644 643 642 643 644 645 647 648 650 653 656 657 656 656 660 667 673 675 679 684 688 690 693 695 697 699 700 700 701 702 705 710 714 719 724 728 731 731
746 743 740 737 735 732 730 728 726 723 721 718 715 711 708 706 704 700 697 693 689 685 681 678 674 669 664 661 658 655 654 652 649 646 645 645 645 646 645 645 644 643 642 640 639 637 636 636 636 636 637 638 639 640 642 645 647 649 649 649 652 657 662 666 670 675 679 682 685 687 689 690 692 694 696 697 698 700 704 709 715 720 725 727 727
743 739 736 733 731 728 725 723 721 718 715 713 711 706 702 701 698 695 692 688 683 678 675 671 668 663 657 652 648 644 643 642 640 637 635 635 636 636 635 635 636 635 634 631 630 629 629 629 629 630 631 631 632 634 637 639 641 641 642 645 648 651 656 661 665 668 671 674 678 680 682 683 685 688 690 691 693 696 700 705 711 716 721 725 725
740 736 733 730 726 724 721 718 716 714 711 709 706 701 698 695 693 689 687 683 678 672 668 665 661 656 650 645 640 636 634 632 631 629 626 626 626 626 626 626 626 626 625 623 622 622 621 621 622 623 625 626 627 629 631 633 634 635 638 641 643 646 650 654 657 660 664 667 669 672 674 677 680 682 684 686 688 693 698 703 708 714 719 722 722
736 733 730 727 723 720 717 714 712 709 707 705 701 697 694 691 688 685 682 679 674 669 664 660 656 651 646 640 635 631 628 626 623 620 618 617 617 617 618 617 617 617 617 615 614 614 614 614 615 617 619 620 623 625 626 627 628 630 633 637 638 639 642 646 650 654 657 658 660 664 669 673 677 679 681 683 687 692 696 701 706 712 716 719 719
733 729 726 723 719 717 713 709 707 704 702 700 697 693 690 687 684 681 679 676 671 666 661 657 653 648 643 637 632 627 623 621 617 614 612 611 609 610 611 611 611 610 609 608 607 607 607 608 609 611 613 615 618 620 620 621 624 626 629 631 631 632 634 638 642 646 649 652 656 660 664 670 675 677 680 683 686 689 693 697 703 708 712 714 715
730 725 722 719 716 713 710 705 702 700 697 695 692 689 687 684 680 677 675 672 667 663 659 655 650 646 641 635 630 625 620 616 612 609 608 606 604 603 604 605 605 604 603 602 601 601 602 603 604 604 607 609 612 614 615 616 619 621 623 624 625 625 628 632 636 640 645 649 654 657 661 666 670 674 677 681 683 686 689 693 698 703 707 709 712
727 722 719 716 712 709 706 703 699 696 693 691 689 685 683 680 676 673 671 669 664 659 656 652 648 645 640 634 629 624 618 614 611 609 606 604 601 600 599 599 600 599 597 596 596 596 597 598 598 599 601 604 607 608 609 610 612 614 616 618 620 621 625 629 633 637 641 646 650 654 657 661 664 668 672 677 681 684 687 690 694 698 703 706 708
724 720 716 713 709 706 703 700 697 693 690 686 684 681 678 676 672 667 665 664 660 656 651 647 645 642 637 632 628 622 615 612 611 610 606 603 600 598 596 595 595 594 593 592 592 592 592 593 593 593 594 597 600 601 602 603 605 608 611 613 615 618 621 625 628 632 637 642 646 649 652 656 660 665 669 674 679 681 684 688 692 696 700 702 705
720 717 713 710 706 703 700 697 694 691 687 682 678 674 672 671 668 663 659 656 654 651 646 641 639 636 631 626 624 619 612 608 609 608 604 602 599 596 593 591 590 589 589 589 589 588 587 586 586 586 587 589 592 594 595 596 599 602 605 609 611 614 617 621 625 629 633 637 641 644 648 653 657 662 667 671 676 680 683 687 690 693 696 698 702
717 713 710 707 704 701 698 694 691 687 683 679 674 669 664 662 661 659 655 651 647 645 641 636 632 630 624 619 616 613 607 604 604 601 599 597 595 592 590 588 586 585 585 585 585 583 581 581 580 581 581 583 584 586 588 591 593 596 600 604 608 610 614 618 622 626 630 634 637 641 645 649 653 658 663 668 673 677 681 685 687 690 693 695 699
715 711 708 705 701 699 695 691 687 683 679 675 672 667 661 656 653 651 650 647 643 639 635 631 627 623 619 614 610 606 603 600 598 595 593 591 588 586 585 583 582 581 581 580 579 577 576 576 575 576 577 577 579 581 584 587 589 592 596 600 604 607 611 615 618 623 627 631 635 639 643 646 651 655 660 664 669 673 677 681 684 687 690 693 697
713 709 705 701 698 695 691 688 684 680 676 672 668 665 661 655 649 645 642 640 638 634 630 626 622 618 614 610 606 601 598 596 593 590 588 586 583 580 579 577 576 576 575 574 573 571 571 571 571 572 573 574 575 578 581 583 585 588 592 596 600 604 609 613 617 621 625 629 633 638 641 645 648 652 657 661 664 668 672 677 681 684 687 691 695
710 706 702 698 695 691 688 684 681 676 673 669 665 661 658 654 649 643 638 634 630 627 623 620 617 613 609 605 602 598 594 591 588 585 583 581 578 576 574 571 569 568 568 567 566 565 566 566 567 569 571 573 574 576 579 581 583 585 589 593 597 602 607 611 615 619 624 628 632 636 640 643 646 650 654 658 662 665 669 673 677 680 683 687 692
705 702 698 695 692 688 685 681 677 673 669 666 662 659 655 650 647 643 637 632 627 622 617 614 611 608 605 600 596 593 589 586 583 580 577 575 573 572 571 568 564 561 560 560 560 560 561 562 564 566 568 570 572 574 576 578 581 583 586 590 595 599 604 609 614 618 622 626 630 633 637 641 644 647 650 654 658 662 666 669 672 675 679 683 688
702 698 695 692 689 686 682 678 674 671 667 663 659 656 651 647 644 639 635 631 625 619 614 609 606 603 599 595 592 588 585 581 578 575 572 569 568 567 566 563 559 556 554 554 555 556 557 558 560 563 565 567 569 572 574 576 578 580 583 587 591 597 602 607 611 616 620 623 627 631 634 638 642 645 648 652 657 660 663 666 669 672 676 680 685
699 695 692 689 686 683 679 675 671 667 664 660 656 652 648 644 640 636 632 628 623 617 612 607 602 598 593 590 588 585 580 577 574 570 566 562 559 559 559 557 555 552 549 548 550 552 554 555 557 559 562 564 567 569 572 574 576 579 582 585 588 593 598 603 607 611 616 620 624 628 632 636 640 643 646 651 656 659 662 665 668 671 675 680 684
696 693 690 687 684 680 676 672 668 664 660 657 653 649 645 641 637 633 629 624 620 615 610 606 602 597 591 586 583 581 577 573 569 565 559 555 552 552 552 551 550 548 545 545 546 548 550 552 554 556 559 561 564 567 570 573 576 578 581 584 588 592 596 601 606 610 614 618 623 627 631 635 638 642 646 650 654 658 661 664 667 671 675 679 683
693 690 687 684 681 677 673 669 665 661 657 653 650 646 642 638 634 630 625 621 617 613 608 604 600 596 590 585 581 578 575 571 567 562 557 552 550 549 548 546 545 543 542 542 543 545 548 550 551 554 556 558 561 564 567 571 575 578 580 583 588 592 597 601 605 609 613 617 621 626 630 634 638 642 646 650 653 656 660 663 666 669 673 677 681
691 688 684 681 678 675 671 667 663 659 654 651 647 643 639 635 630 626 622 618 614 609 606 602 598 593 589 584 580 577 574 569 564 560 556 552 550 548 546 544 541 539 538 539 541 543 545 547 549 551 554 556 559 562 566 570 575 578 580 583 587 591 595 599 602 607 611 615 619 623 628 632 637 642 647 650 653 656 659 662 666 669 672 676 680
689 686 682 679 676 672 668 665 660 656 652 648 644 640 636 631 627 623 619 615 611 607 603 599 595 590 586 582 578 576 572 567 562 558 555 551 549 546 544 542 539 536 537 538 540 542 544 545 548 550 552 555 558 561 565 570 574 577 580 583 587 590 594 598 602 605 609 614 618 622 626 630 636 641 646 650 654 657 659 662 665 669 672 675 679
687 684 680 677 674 670 666 662 658 654 650 646 642 638 634 629 624 620 616 612 608 604 600 596 591 587 584 580 576 573 570 565 560 557 554 551 548 545 544 541 538 536 536 537 539 541 543 545 548 550 552 555 558 561 565 568 571 575 579 583 586 590 594 597 602 605 609 613 617 621 625 630 636 641 647 651 654 657 659 662 665 668 671 674 678
685 682 679 675 672 669 665 661 657 653 649 644 640 636 632 627 623 618 613 609 605 601 597 593 588 584 581 577 574 571 568 564 560 557 554 552 548 545 544 542 539 537 537 538 540 542 543 545 548 550 552 554 557 559 562 565 568 573 578 582 586 590 593 597 602 606 610 614 618 621 625 630 635 641 646 651 654 657 659 662 664 667 670 673 676
683 680 677 674 671 667 664 660 656 652 648 643 639 634 630 626 622 617 613 609 604 600 596 592 588 584 580 576 574 571 568 565 562 559 556 553 550 547 545 543 542 540 539 540 541 543 544 546 548 550 553 555 557 559 562 564 567 571 576 580 585 589 593 596 600 604 609 613 617 621 624 628 634 640 645 650 654 657 659 661 663 666 669 672 675
682 679 676 673 670 666 663 659 656 652 647 643 638 634 629 626 622 618 614 610 605 602 598 593 589 586 582 578 575 573 569 567 564 561 558 555 552 550 548 546 545 544 543 543 543 544 546 547 549 552 554 557 559 562 564 567 569 573 576 579 583 587 591 594 598 602 607 611 616 620 624 628 633 639 644 649 653 656 658 660 662 665 667 670 672
681 678 675 672 669 666 662 658 655 651 647 643 639 634 630 626 622 618 615 611 607 603 600 596 592 588 585 581 578 575 572 569 566 563 561 558 555 553 552 550 549 548 547 547 547 548 549 551 552 554 556 559 561 564 567 569 573 576 580 582 585 588 592 595 598 602 606 610 614 619 624 628 633 638 643 648 652 655 657 660 662 664 667 669 671
680 677 675 672 669 665 662 658 655 651 648 644 640 636 632 628 624 620 616 612 608 605 601 598 595 591 587 584 581 577 574 572 569 566 564 561 559 557 555 554 553 552 551 551 551 551 552 554 555 557 559 561 564 567 570 573 576 579 582 585 588 591 594 598 601 604 607 610 614 619 623 628 633 638 642 646 650 653 656 659 661 663 666 669 671
679 677 675 671 669 666 662 659 655 652 648 645 641 637 634 630 626 622 618 614 610 607 603 600 597 593 590 587 583 580 577 575 572 570 568 565 563 561 559 558 557 557 556 556 556 556 557 558 559 561 563 565 567 570 573 576 579 582 584 587 591 593 597 601 605 607 610 613 616 620 624 628 633 638 642 646 650 652 655 658 660 663 666 669 671
679 677 674 671 669 666 663 660 657 653 650 646 643 639 635 632 628 624 621 617 613 609 606 602 599 596 593 590 586 583 581 578 575 573 571 569 568 566 564 562 562 561 561 561 561 562 562 563 564 566 568 570 571 574 576 578 581 585 587 591 594 597 601 605 608 611 613 616 619 623 626 630 634 639 643 647 650 652 655 657 659 662 665 668 670
680 677 675 672 669 667 664 661 658 654 651 648 645 641 637 634 630 626 623 619 615 612 609 605 602 599 595 593 590 587 584 582 580 577 576 574 572 571 569 568 566 566 566 566 566 567 568 569 569 571 573 574 576 578 580 582 585 588 591 594 597 601 605 608 611 614 616 619 622 625 629 632 636 640 644 648 651 653 655 657 659 662 664 667 669
680 677 675 672 670 667 664 661 658 655 652 650 646 643 640 636 633 629 626 622 618 615 612 608 605 602 599 596 594 591 589 586 584 582 580 579 577 575 574 573 571 570 570 571 571 572 573 573 574 576 578 579 581 583 585 588 590 593 596 599 602 605 608 611 614 617 620 622 625 628 631 634 638 641 645 648 651 653 655 657 659 661 663 666 668